Clinton, OK

7:56 AM CDT on July 27, 2017 (GMT -0500)
Clinton Municipal

Weather History for KCLK - December, 2012

Change the Weather History Date:

Thursday, December 6, 2012

  Actual Average (KCSM) Record (KCSM)
Temperature  
Mean Temperature 50 °F -  
Max Temperature 62 °F 51 °F 68 °F (2001)
Min Temperature 37 °F 31 °F 12 °F (2013)
Degree Days  
Heating Degree Days 16    
Moisture  
Dew Point 35 °F    
Average Humidity 63    
Maximum Humidity 93    
Minimum Humidity 27    
Precipitation  
Precipitation 0.00 in - - ()
Sea Level Pressure  
Sea Level Pressure 29.83 in    
Wind  
Wind Speed 11 mph (SW)    
Max Wind Speed 17 mph    
Max Gust Speed 22 mph    
Visibility 10 miles    
Events      
Averages and records for this station are not official NWS values.
T = Trace of Precipitation, MM = Missing Value Source: NWS Daily Summary

Daily Weather History Graph

Daily Weather History Graph

Search for Another Location

Airport or City:

Trip Planner

Search our weather history database for the weather conditions in past years. The results will help you decide how hot, cold, wet, or windy it might be!

Date:

Astronomy

Dec. 06, 2012 Rise Set
Actual Time 7:31 AM CST 5:22 PM CST
Civil Twilight 7:03 AM CST 5:50 PM CST
Nautical Twilight 6:31 AM CST 6:22 PM CST
Astronomical Twilight 6:00 AM CST 6:53 PM CST
Moon 12:03 AM CST (12/6) 12:36 PM CST (12/6)
Length of Visible Light 10h 47m
Length of Day
9h 51m
Waning Gibbous, 49% of the Moon is Illuminated
Dec 6
Waning Gibbous
Dec 13
New
Dec 19
First Quarter
Dec 28
Full
Jan 4
Last Quarter

Hourly Weather History & Observations

Time (CST) Temp. Windchill Dew Point Humidity Pressure Visibility Wind Dir Wind Speed Gust Speed Precip Events Conditions
12:15 AM 42.8 °F 36.2 °F 32.0 °F 66% 29.95 in 10.0 mi SSE 12.7 mph - N/A   Clear
12:35 AM 44.6 °F 38.4 °F 33.8 °F 66% 29.94 in 10.0 mi SSE 12.7 mph - N/A   Clear
12:55 AM 44.6 °F 38.8 °F 33.8 °F 66% 29.93 in 10.0 mi SSE 11.5 mph - N/A   Clear
1:15 AM 44.6 °F 38.4 °F 35.6 °F 71% 29.92 in 10.0 mi SSE 12.7 mph - N/A   Clear
1:35 AM 44.6 °F 39.2 °F 35.6 °F 71% 29.92 in 10.0 mi SSE 10.4 mph - N/A   Clear
2:35 AM 42.8 °F 36.6 °F 35.6 °F 76% 29.90 in 10.0 mi SSE 11.5 mph - N/A   Clear
2:55 AM 42.8 °F 36.6 °F 37.4 °F 81% 29.89 in 10.0 mi SSE 11.5 mph - N/A   Clear
3:15 AM 42.8 °F 36.2 °F 37.4 °F 81% 29.88 in 10.0 mi SSE 12.7 mph - N/A   Clear
3:35 AM 42.8 °F 37.0 °F 37.4 °F 81% 29.88 in 10.0 mi SSE 10.4 mph - N/A   Clear
3:55 AM 42.8 °F 35.8 °F 37.4 °F 81% 29.87 in 10.0 mi SSE 13.8 mph 18.4 mph N/A   Clear
4:15 AM 42.8 °F 36.2 °F 39.2 °F 87% 29.86 in 7.0 mi SSE 12.7 mph - N/A   Clear
4:35 AM 42.8 °F 36.2 °F 41.0 °F 93% 29.84 in 7.0 mi SE 12.7 mph - N/A   Clear
4:55 AM 42.8 °F 35.4 °F 41.0 °F 93% 29.83 in 5.0 mi SSE 15.0 mph - N/A   Clear
5:15 AM 42.8 °F 36.6 °F 41.0 °F 93% 29.83 in 7.0 mi SSE 11.5 mph - N/A   Clear
5:35 AM 44.6 °F 37.8 °F 41.0 °F 87% 29.81 in 7.0 mi SSE 15.0 mph - N/A   Clear
5:55 AM 42.8 °F 36.2 °F 39.2 °F 87% 29.82 in 7.0 mi SSE 12.7 mph - N/A   Clear
6:15 AM 42.8 °F 36.2 °F 39.2 °F 87% 29.81 in 7.0 mi SSE 12.7 mph - N/A   Clear
6:35 AM 44.6 °F 37.4 °F 41.0 °F 87% 29.81 in 10.0 mi South 16.1 mph - N/A   Clear
6:55 AM 44.6 °F 37.2 °F 41.0 °F 87% 29.80 in 10.0 mi SSE 17.3 mph - N/A   Clear
7:15 AM 42.8 °F 35.1 °F 39.2 °F 87% 29.80 in 10.0 mi South 16.1 mph - N/A   Clear
7:35 AM 42.8 °F 35.1 °F 41.0 °F 93% 29.80 in 10.0 mi South 16.1 mph - N/A   Clear
7:55 AM 44.6 °F 37.4 °F 39.2 °F 81% 29.79 in 7.0 mi South 16.1 mph - N/A   Clear
8:15 AM 44.6 °F 37.8 °F 41.0 °F 87% 29.80 in 10.0 mi South 15.0 mph - N/A   Clear
8:35 AM 44.6 °F 37.2 °F 41.0 °F 87% 29.79 in 10.0 mi South 17.3 mph 21.9 mph N/A   Clear
8:55 AM 46.4 °F 39.8 °F 41.0 °F 81% 29.79 in 10.0 mi South 16.1 mph 19.6 mph N/A   Clear
9:15 AM 48.2 °F - 39.2 °F 71% 29.80 in 10.0 mi South 11.5 mph - N/A   Clear
9:35 AM 50.0 °F - 37.4 °F 62% 29.80 in 10.0 mi South 15.0 mph - N/A   Clear
10:15 AM 51.8 °F - 35.6 °F 54% 29.80 in 10.0 mi SSW 15.0 mph - N/A   Clear
10:35 AM 53.6 °F - 35.6 °F 51% 29.80 in 10.0 mi SSW 13.8 mph 18.4 mph N/A   Clear
10:55 AM 53.6 °F - 33.8 °F 47% 29.80 in 10.0 mi SSW 12.7 mph - N/A   Clear
11:15 AM 53.6 °F - 33.8 °F 47% 29.79 in 10.0 mi SSW 10.4 mph - N/A   Clear
11:35 AM 55.4 °F - 33.8 °F 44% 29.78 in 10.0 mi South 11.5 mph - N/A   Clear
11:55 AM 55.4 °F - 32.0 °F 41% 29.78 in 10.0 mi South 8.1 mph - N/A   Clear
12:15 PM 59.0 °F - 32.0 °F 36% 29.77 in 10.0 mi SSW 8.1 mph - N/A   Clear
12:35 PM 59.0 °F - 28.4 °F 31% 29.77 in 10.0 mi SW 3.5 mph - N/A   Clear
12:55 PM 59.0 °F - 28.4 °F 31% 29.76 in 10.0 mi South 5.8 mph - N/A   Clear
1:15 PM 60.8 °F - 26.6 °F 27% 29.76 in 10.0 mi WNW 6.9 mph - N/A   Clear
1:55 PM 60.8 °F - 26.6 °F 27% 29.77 in 10.0 mi NW 5.8 mph - N/A   Clear
2:15 PM 60.8 °F - 26.6 °F 27% 29.77 in 10.0 mi West 6.9 mph - N/A   Clear
2:35 PM 62.6 °F - 28.4 °F 27% 29.77 in 10.0 mi NW 6.9 mph - N/A   Clear
2:55 PM 60.8 °F - 28.4 °F 29% 29.77 in 10.0 mi NW 6.9 mph - N/A   Clear
3:15 PM 60.8 °F - 28.4 °F 29% 29.78 in 10.0 mi NNW 6.9 mph - N/A   Clear
3:35 PM 60.8 °F - 28.4 °F 29% 29.78 in 10.0 mi North 9.2 mph - N/A   Clear
3:55 PM 60.8 °F - 30.2 °F 31% 29.79 in 10.0 mi NNW 11.5 mph - N/A   Clear
4:15 PM 59.0 °F - 28.4 °F 31% 29.79 in 10.0 mi NNW 13.8 mph - N/A   Clear
4:35 PM 57.2 °F - 30.2 °F 36% 29.80 in 10.0 mi NNW 11.5 mph - N/A   Clear
4:55 PM 55.4 °F - 30.2 °F 38% 29.81 in 10.0 mi North 10.4 mph - N/A   Clear
5:15 PM 55.4 °F - 30.2 °F 38% 29.82 in 10.0 mi North 8.1 mph - N/A   Clear
5:35 PM 53.6 °F - 32.0 °F 44% 29.82 in 10.0 mi North 8.1 mph - N/A   Clear
6:15 PM 51.8 °F - 32.0 °F 47% 29.83 in 10.0 mi NNW 9.2 mph - N/A   Clear
6:35 PM 50.0 °F - 32.0 °F 50% 29.84 in 10.0 mi NNW 9.2 mph - N/A   Clear
6:55 PM 50.0 °F - 33.8 °F 54% 29.85 in 10.0 mi North 9.2 mph - N/A   Clear
7:15 PM 48.2 °F - 33.8 °F 58% 29.86 in 10.0 mi North 8.1 mph - N/A   Clear
7:35 PM 46.4 °F 42.4 °F 33.8 °F 62% 29.87 in 10.0 mi North 8.1 mph - N/A   Clear
7:55 PM 44.6 °F 40.2 °F 33.8 °F 66% 29.87 in 10.0 mi North 8.1 mph - N/A   Clear
8:15 PM 44.6 °F 40.2 °F 33.8 °F 66% 29.87 in 10.0 mi North 8.1 mph - N/A   Clear
8:35 PM 42.8 °F 38.6 °F 33.8 °F 70% 29.88 in 10.0 mi North 6.9 mph - N/A   Clear
9:15 PM 42.8 °F 38.6 °F 33.8 °F 70% 29.88 in 10.0 mi North 6.9 mph - N/A   Clear
9:35 PM 41.0 °F 36.4 °F 33.8 °F 76% 29.88 in 10.0 mi North 6.9 mph - N/A   Clear
9:55 PM 41.0 °F 35.8 °F 33.8 °F 76% 29.88 in 10.0 mi North 8.1 mph - N/A   Clear
10:15 PM 41.0 °F 37.1 °F 35.6 °F 81% 29.88 in 10.0 mi North 5.8 mph - N/A   Clear
10:35 PM 41.0 °F 38.0 °F 33.8 °F 76% 29.88 in 10.0 mi NNW 4.6 mph - N/A   Clear
10:55 PM 41.0 °F 37.1 °F 33.8 °F 76% 29.88 in 10.0 mi North 5.8 mph - N/A   Clear
11:15 PM 39.2 °F 35.0 °F 33.8 °F 81% 29.88 in 10.0 mi NNW 5.8 mph - N/A   Clear
11:35 PM 37.4 °F 32.8 °F 33.8 °F 87% 29.88 in 10.0 mi NNW 5.8 mph - N/A   Clear
11:55 PM 41.0 °F 36.4 °F 33.8 °F 76% 29.88 in 10.0 mi NNW 6.9 mph - N/A   Clear